{"data":{"norad_id":64245,"epoch":"2026-09-20T22:19:07.737024Z","epoch_age_seconds":100498,"freshness":"FRESH","line1":"1 64245U 25119N   26263.92995066  .00116427  00000+0  89800-3 0  9992","line2":"2 64245  43.0001 112.0276 0001592 277.4223  82.6463 15.70844612 75957","mean_motion":15.70844612,"eccentricity":0.0001592,"inclination_deg":43.0001,"raan_deg":112.0276,"arg_perigee_deg":277.4223,"mean_anomaly_deg":82.6463,"bstar":0.000898,"rev_number":7595,"period_min":91.670429334611,"perigee_km":355.40972831603,"apogee_km":357.5540309673,"semimajor_km":6734.6188796417,"source":"CELESTRAK","updated_at":"2026-09-21T09:00:35.278788Z"}}